Tracking 31027 objects as of 19-Jul-2025
HD Live streaming from Space Station
objects crossing your sky now

STARLINK-31663

Track STARLINK-31663 now!
10-day predictions
STARLINK-31663 is classified as:


NORAD ID: 59576
Int'l Code: 2024-076N
Perigee: 489.3 km
Apogee: 491.1 km
Inclination: 43.0 °
Period: 94.3 minutes
Semi major axis: 6861 km
RCS: Unknown
Launch date: April 23, 2024
Source: United States (US)
Launch site: AIR FORCE EASTERN TEST RANGE (AFETR)
Your satellite tracking list
Your tracking list is empty




NASA's NSSDC Master Catalog

Two Line Element Set (TLE):
1 59576U 24076N   25199.82893842 -.00000018  00000-0  88664-5 0  9998
2 59576  42.9996 249.9829 0001267 272.6298  87.4409 15.27576540 70739
Source of the keplerian elements: AFSPC